Weather in Gelibolu

Turkey     40°24′37″N   26°40′34″E
temp.,
°C
wind,
m/s
gust,
m/s
humid.,
%
clouds,
%
prec.,
mm/h
press.,
hPa
HPBL,
m
26 october, tue
tue2600:00+12ne7116658 0.0 1027978
03:00+12ne7106448 0.0 1026793
06:00+11nne7117380 0.0 1025683
09:00+11nne7117850 0.0 1025622
12:00+15ene10116157 0.0 10241373
15:00+16ene910550 0.0 10221301
18:00+15ene89560 0.0 1022982
21:00+14ne710710 0.0 1023731
27 october, wed
wed2700:00+12nne697926 0.0 1023458
03:00+11nne578314 0.0 1023301
06:00+11nne578542 0.0 1023282
09:00+11nne578140 0.0 1024334
12:00+15ene676130 0.0 10241194
15:00+17ene77562 0.0 10231186
18:00+16ene89604 0.0 1023933
21:00+14ene79674 0.0 1025752
28 october, thu
thu2800:00+13ne697312 0.0 1025563
03:00+11nne697933 0.0 1025376
06:00+11ne6107731 0.0 1025394
09:00+13ne6107239 0.0 1026683
12:00+16ene895945 0.0 10251292
15:00+17ene89540 0.0 10241324
18:00+16ene810580 0.0 1023925
21:00+14ene710692 0.0 1025694
29 october, fri
fri2900:00+12ne6107728 0.0 1025638
03:00+12ne610815 0.0 1024519
06:00+11ne711856 0.0 1024506
09:00+12ne711805 0.0 1025764
12:00+16ene911645 0.0 10241074
15:00+17e910580 0.0 10231122
18:00+16ene910620 0.0 1023838
21:00+14ene711750 0.0 1024691
30 october, sat
sat3000:00+13ne711805 0.0 1024680
03:00+13ne610846 0.0 1024535
06:00+12ne6108738 0.0 1024452
09:00+12ne6118546 0.1 1025545
12:00+17ene9116318 0.0 10251139
15:00+18ene810590 0.0 10231033
18:00+17ene810640 0.0 1024876
21:00+14ne7107958 0.0 1025751